AAL5101 KMSY-KIAH

Flight info

Callsign AAL5101
Flight time 0h 46m
Altitude 32000
Route JEPEG LINKK1
Aircraft B38M/M-SDE1FGHILORVWXY/HB1

Departure

Time 2025-09-04 21:25
Airport Louis Armstrong New Orleans International Airport (KMSY)

Arrival

Time 2025-09-04 22:11
Airport George Bush Intercontinental Airport (KIAH)
Time Latitude Longitude Altitude Speed Heading
2025-09-04 20:58 29.99283 -90.25367 9 ft 0 kts 351°
2025-09-04 21:16 29.99254 -90.25358 11 ft 3 kts 341°
2025-09-04 21:16 29.99237 -90.25352 10 ft 3 kts 348°
2025-09-04 21:16 29.99203 -90.25360 10 ft 3 kts 51°
2025-09-04 21:17 29.99188 -90.25396 10 ft 0 kts 69°
2025-09-04 21:20 29.99192 -90.25381 10 ft 6 kts 75°
2025-09-04 21:21 29.99177 -90.25084 12 ft 11 kts 128°
2025-09-04 21:21 29.99060 -90.25089 9 ft 25 kts 195°
2025-09-04 21:22 29.98644 -90.25208 9 ft 29 kts 193°
2025-09-04 21:22 29.98494 -90.25229 11 ft 2 kts 141°
2025-09-04 21:23 29.98906 -90.24996 6 ft 103 kts 15°
2025-09-04 21:23 29.99865 -90.24692 14 ft 180 kts 15°
2025-09-04 21:24 30.02750 -90.23755 1725 ft 218 kts 15°
2025-09-04 21:24 30.05908 -90.22818 3532 ft 273 kts
2025-09-04 21:25 30.09488 -90.24479 5798 ft 289 kts 304°
2025-09-04 21:26 30.08960 -90.31353 8110 ft 347 kts 238°
2025-09-04 21:26 30.06182 -90.36446 8875 ft 397 kts 238°
2025-09-04 21:27 30.03440 -90.41415 12163 ft 354 kts 239°
2025-09-04 21:27 30.00704 -90.46364 13095 ft 381 kts 239°
2025-09-04 21:27 29.99250 -90.48991 13429 ft 395 kts 239°
2025-09-04 21:28 29.96223 -90.54479 14282 ft 412 kts 239°
2025-09-04 21:28 29.93122 -90.60102 15375 ft 418 kts 239°
2025-09-04 21:29 29.88378 -90.68661 16847 ft 427 kts 239°
2025-09-04 21:30 29.85154 -90.74450 17764 ft 432 kts 239°
2025-09-04 21:30 29.81889 -90.80301 18594 ft 437 kts 239°
2025-09-04 21:30 29.80238 -90.83251 19010 ft 439 kts 239°
2025-09-04 21:31 29.76918 -90.89187 19749 ft 443 kts 239°
2025-09-04 21:31 29.73560 -90.95180 20420 ft 447 kts 239°
2025-09-04 21:32 29.70176 -91.01220 21064 ft 451 kts 239°
2025-09-04 21:32 29.66755 -91.07321 21648 ft 455 kts 239°
2025-09-04 21:33 29.61571 -91.16559 22488 ft 461 kts 239°
2025-09-04 21:34 29.59270 -91.23313 23027 ft 456 kts 266°
2025-09-04 21:34 29.59021 -91.26946 23257 ft 457 kts 265°
2025-09-04 21:34 29.58305 -91.33985 24878 ft 435 kts 265°
2025-09-04 21:36 29.55320 -91.61291 28907 ft 425 kts 264°
2025-09-04 21:39 29.51994 -91.90981 31926 ft 410 kts 264°
2025-09-04 21:40 29.49404 -92.13645 31914 ft 409 kts 264°
2025-09-04 21:42 29.46362 -92.39833 31914 ft 432 kts 264°
2025-09-04 21:44 29.46715 -92.68146 31914 ft 448 kts 274°
2025-09-04 21:46 29.47948 -92.95482 31913 ft 447 kts 274°
2025-09-04 21:48 29.49128 -93.23920 31911 ft 445 kts 274°
2025-09-04 21:50 29.50196 -93.51684 28075 ft 414 kts 274°
2025-09-04 21:51 29.50693 -93.65124 24755 ft 430 kts 274°
2025-09-04 21:52 29.50941 -93.71999 23320 ft 432 kts 274°
2025-09-04 21:52 29.51185 -93.78820 22108 ft 428 kts 274°
2025-09-04 21:53 29.53304 -93.88497 20297 ft 417 kts 293°
2025-09-04 21:53 29.54384 -93.91571 19743 ft 413 kts 293°
2025-09-04 21:54 29.57619 -94.00630 17999 ft 404 kts 293°
2025-09-04 21:55 29.59805 -94.06531 16888 ft 399 kts 294°
2025-09-04 21:55 29.61957 -94.12362 15789 ft 394 kts 294°
2025-09-04 21:56 29.64028 -94.18154 14740 ft 389 kts 293°
2025-09-04 21:56 29.66056 -94.23880 13658 ft 385 kts 294°
2025-09-04 21:56 29.67046 -94.26683 13164 ft 382 kts 294°
2025-09-04 21:57 29.70014 -94.35103 11617 ft 375 kts 294°
2025-09-04 21:58 29.71961 -94.40637 10646 ft 371 kts 294°
2025-09-04 21:58 29.73882 -94.46106 9630 ft 367 kts 293°
2025-09-04 21:59 29.75782 -94.51522 8672 ft 362 kts 292°
2025-09-04 21:59 29.77658 -94.56881 7514 ft 363 kts 292°
2025-09-04 22:00 29.79529 -94.62230 6650 ft 356 kts 292°
2025-09-04 22:00 29.81344 -94.67424 6253 ft 348 kts 292°
2025-09-04 22:00 29.82247 -94.70012 6070 ft 347 kts 292°
2025-09-04 22:01 29.86919 -94.76145 4936 ft 340 kts 315°
2025-09-04 22:02 29.90329 -94.79936 4163 ft 340 kts 315°
2025-09-04 22:02 29.93750 -94.83686 3370 ft 338 kts 315°
2025-09-04 22:03 29.96576 -94.87695 3044 ft 315 kts 288°
2025-09-04 22:03 29.97186 -94.90052 3046 ft 299 kts 283°
2025-09-04 22:03 29.97688 -94.94494 2884 ft 268 kts 271°
2025-09-04 22:04 29.97760 -94.98673 2675 ft 253 kts 269°
2025-09-04 22:04 29.97765 -95.02580 2471 ft 234 kts 269°
2025-09-04 22:05 29.97766 -95.07888 2244 ft 205 kts 269°
2025-09-04 22:06 29.97765 -95.13517 1992 ft 159 kts 269°
2025-09-04 22:07 29.97757 -95.16021 2018 ft 162 kts 268°
2025-09-04 22:07 29.97767 -95.17338 2048 ft 165 kts 270°
2025-09-04 22:07 29.97765 -95.19972 1843 ft 160 kts 269°
2025-09-04 22:08 29.97761 -95.22441 1455 ft 150 kts 269°
2025-09-04 22:10 29.97758 -95.30745 117 ft 144 kts 270°
2025-09-04 22:10 29.97765 -95.32085 108 ft 30 kts 279°
2025-09-04 22:11 29.97863 -95.32381 109 ft 21 kts 281°
2025-09-04 22:11 29.97869 -95.32563 108 ft 25 kts 269°
2025-09-04 22:11 29.97878 -95.33000 110 ft 16 kts 298°